Regional Weather Roundup
Issued by NWS

Home | Current Version | Previous Version | Text Only | Print | Product List | Glossary Off
Versions: 1 2 3 4 5 6 7 8 9 10 11 12 13 14 15 16 17 18 19 20 21 22 23 24 25 26 27 28 29 30 31 32 33 34 35 36 37 38 39 40 41 42 43 44 45 46 47 48 49 50

910
ASUS45 KCYS 090910
RWRWY

WYOMING REGIONAL WEATHER ROUNDUP
NATIONAL WEATHER SERVICE CHEYENNE WY
200 AM MST TUE FEB 09 2016

NOTE:  "FAIR" INDICATES FEW OR NO CLOUDS BELOW 12,000 FEET
WITH NO SIGNIFICANT WEATHER AND/OR OBSTRUCTIONS TO VISIBILITY.

WYZ001-091000-
YELLOWSTONE NATIONAL PARK

CITY           SKY/WX    TMP DP  RH WIND       PRES   REMARKS
LK YELLOWSTONE   N/A     11   7  84 CALM      30.58R
W YELLOWSTONE  NOT AVBL

$$
WYZ002>013-054>058-071-098>099-091000-
NORTHERN WYOMING

CITY           SKY/WX    TMP DP  RH WIND       PRES   REMARKS
JACKSON        FAIR       9   9 100 N7        30.57S WCI  -3
CODY           FAIR      28  19  69 CALM      30.33S
GREYBULL       FAIR      21  17  84 SW5       30.37F WCI  15
WORLAND        FAIR      18  16  92 CALM      30.37S
SHERIDAN       FAIR      38  28  67 W9        30.29S WCI  31
BUFFALO        FAIR      42  27  55 N8        30.28F
GILLETTE       FAIR      33  26  75 W12       30.26S WCI  24
HULETT         FAIR      32  25  74 SW7       30.25S WCI  26
NEWCASTLE      FAIR      25  21  86 CALM      30.24S

$$
WYZ014>020-022>026-101>103-091000-
CENTRAL WYOMING

CITY           SKY/WX    TMP DP  RH WIND       PRES   REMARKS
BIG PINEY      FAIR      24  20  84 NE16      30.47F WCI  11
PINEDALE       FAIR      30  23  74 NW22      30.45F WCI  17
DUBOIS         FAIR      36  21  55 W33G40    30.41F WCI  22
LANDER         FAIR      20  15  81 VRB3      30.38R
RIVERTON       FAIR      20  14  77 W5        30.38S WCI  13
CASPER         FAIR      31  20  63 SW24G32   30.34S WCI  17
DOUGLAS        FAIR      31  22  69 NW13        N/A  WCI  21

$$
WYZ021-027>030-104>119-091000-
SOUTHERN WYOMING

CITY           SKY/WX    TMP DP  RH WIND       PRES   REMARKS
EVANSTON       FAIR      22  16  78 S9        30.55F WCI  12
FORT BRIDGER   SUNNY     32  23  69 W17       30.54F WCI  21
ROCK SPRINGS   FAIR      28  21  75 SW22      30.46S WCI  14
DIXON          FAIR      18  13  82 SE9       30.52F WCI   6
RAWLINS        FAIR      29  19  66 W5        30.43R WCI  24
SARATOGA       FAIR      12  10  92 CALM      30.45R
LARAMIE        FAIR      20  14  77 E6        30.35R WCI  12
CHEYENNE       FAIR      35  19  52 NW7       30.29R WCI  29
TORRINGTON     CLOUDY    33  23  66 W10       30.25S WCI  25
PINE BLUFFS    FAIR      36  25  64 NW25G31   30.27R WCI  23

$$




USA.gov is the U.S. government's official web portal to all federal, state and local government web resources and services.